DateTimeUTC,F1_A11,F1_S11,BsB_S11,BsG_S11,BsR_S11,BbsB_S11,BbsG_S11,BbsR_S11,BaB_A11,BaG_A11,BaR_A11,Tu_S11,T_S11,Uu_S11,U_S11,P_S11,T1_A11
2021-02-04T15:00:00Z,00000200,21000000,,,,,,,-000.12,-000.12,-000.05,16.8,23.8,01.2,00.7,0620.3,31.0
2021-02-04T15:01:00Z,00000200,21000000,,,,,,,-000.05,0000.15,-000.21,16.8,23.8,01.1,00.7,0620.3,30.9
2021-02-04T15:02:00Z,00000200,21000000,,,,,,,0000.32,0000.06,0000.24,16.8,23.8,00.9,00.6,0620.3,31.0
2021-02-04T15:03:00Z,00000200,61000000,,,,,,,0000.30,0000.40,0000.27,16.8,23.8,00.9,00.6,0620.3,31.0
2021-02-04T15:04:00Z,00000200,41000000,0000.38,0000.42,-000.10,0000.10,0000.00,-000.22,0000.35,0000.03,0000.56,17.1,23.7,01.3,00.9,0621.0,31.0
2021-02-04T15:05:00Z,00000200,01000000,0000.02,-000.16,0000.25,0000.73,-000.16,0000.11,0000.14,0000.58,0000.07,17.2,23.6,01.3,00.9,0620.9,31.0
2021-02-04T15:06:00Z,00000200,01000000,0000.29,0000.11,0000.28,-000.22,-000.01,0000.08,0000.28,0000.06,0000.19,17.2,23.6,01.3,00.9,0620.9,31.0
2021-02-04T15:07:00Z,00000200,01000000,-000.07,0000.09,0000.21,-000.26,-000.12,0000.16,0000.52,0000.43,0000.44,17.2,23.6,01.4,01.0,0621.0,31.0
2021-02-04T15:08:00Z,00000200,01000000,-000.07,0000.24,0000.21,0000.36,0000.21,-000.03,0000.24,0000.35,0000.71,17.2,23.6,01.3,00.9,0621.2,31.0
2021-02-04T15:09:00Z,00000200,01000000,0000.29,0000.10,0000.49,0000.43,0000.07,0000.24,0000.42,0000.47,0000.27,17.2,23.6,01.4,00.9,0621.0,31.0
2021-02-04T15:10:00Z,00000200,01000000,0000.25,-000.00,-000.11,0000.45,0000.10,0000.02,0000.57,0000.64,0000.47,17.1,23.6,01.3,00.9,0620.8,31.0
2021-02-04T15:11:00Z,00000200,01000000,0000.25,0000.20,0000.21,-000.08,0000.17,-000.06,0000.55,0000.12,0000.69,17.1,23.6,01.4,01.0,0621.2,31.0
2021-02-04T15:12:00Z,00000200,01000000,-000.40,0000.07,0000.09,0000.13,0000.08,0000.07,0000.37,0000.54,0000.44,17.1,23.6,01.3,00.9,0621.2,31.0
2021-02-04T15:13:00Z,00000200,01000000,0000.13,-000.14,-000.13,0000.34,0000.12,0000.26,0000.26,0000.32,0000.18,17.1,23.6,01.3,00.9,0621.1,31.0
2021-02-04T15:14:00Z,00000200,01000000,0000.41,0000.14,0000.27,0000.18,0000.07,-000.14,0000.43,0000.43,0000.37,17.1,23.6,01.4,01.0,0621.3,31.0
2021-02-04T15:15:00Z,00000200,01000000,0000.44,0000.01,0000.49,0000.20,0000.19,-000.18,-000.32,-000.10,0000.03,17.1,23.6,01.3,00.9,0621.5,31.0
2021-02-04T15:16:00Z,00000200,01000000,-000.08,0000.00,0000.22,0000.25,0000.19,0000.27,0000.68,0000.52,0000.55,17.1,23.5,01.4,00.9,0621.2,30.9
2021-02-04T15:17:00Z,00000200,01000000,0000.03,0000.27,-000.07,0000.59,0000.02,-000.06,0000.12,0000.44,0000.05,17.1,23.5,01.4,01.0,0620.9,30.9
2021-02-04T15:18:00Z,00000200,01000000,0000.24,-000.01,0000.21,0000.36,-000.02,0000.10,0000.48,0000.33,0000.58,17.2,23.6,01.4,01.0,0621.2,31.0
2021-02-04T15:19:00Z,00000200,01000000,0000.01,-000.09,0000.39,0000.32,-000.07,0000.09,0000.18,0000.14,0000.39,17.2,23.6,01.4,00.9,0621.3,31.0
2021-02-04T15:20:00Z,00000200,01000000,-000.52,0000.35,0000.25,0000.30,0000.02,-000.20,0000.32,0000.50,0000.10,17.2,23.6,01.3,00.9,0621.3,31.0
2021-02-04T15:21:00Z,00000200,01000000,0000.43,0000.04,0000.28,0000.03,-000.09,0000.03,0000.26,-000.09,0000.08,17.2,23.6,01.3,00.9,0621.6,31.0
2021-02-04T15:22:00Z,00000200,01000000,0000.72,0000.20,0000.30,0000.26,0000.09,0000.19,0000.26,0000.46,0000.41,17.2,23.6,01.3,00.9,0621.5,31.0
2021-02-04T15:23:00Z,00000200,01000000,0000.04,-000.09,0000.16,0000.26,-000.01,0000.09,-000.39,-000.14,-000.06,17.2,23.6,01.4,00.9,0621.8,31.0
2021-02-04T15:24:00Z,00000200,01000000,0000.65,0000.24,0000.40,0000.62,0000.30,0000.09,0000.37,0000.08,0000.10,17.2,23.6,01.4,00.9,0621.5,31.0
2021-02-04T15:25:00Z,00000200,01000000,-000.72,-000.03,0000.07,0000.24,-000.04,-000.00,0000.59,0000.51,0000.49,17.2,23.6,01.3,00.9,0621.7,31.0
2021-02-04T15:26:00Z,00000200,01000000,-000.34,-000.17,0000.14,0000.80,0000.11,0000.09,0000.27,0000.31,0000.47,17.2,23.6,01.4,01.0,0621.4,31.0
2021-02-04T15:27:00Z,00000200,01000000,0000.36,-000.11,0000.06,0000.87,0000.06,0000.14,0000.12,0000.34,-000.01,17.1,23.6,01.4,00.9,0621.6,31.0
2021-02-04T15:28:00Z,00000200,01000000,-000.05,-000.02,0000.39,0000.30,0000.09,0000.19,0000.46,-000.15,0000.03,17.1,23.6,01.3,00.9,0621.5,31.0
2021-02-04T15:29:00Z,00000200,01000000,-000.14,-000.09,0000.16,0000.26,0000.17,-000.21,0000.27,0000.38,0000.54,17.1,23.6,01.3,00.9,0621.8,31.0
2021-02-04T15:30:00Z,00000200,01000000,-000.02,0000.00,0000.05,0000.13,-000.20,-000.12,0000.14,0000.15,-000.02,17.1,23.5,01.3,00.9,0621.7,31.0
2021-02-04T15:31:00Z,00000200,01000000,-000.06,0000.22,0000.12,0000.54,-000.06,0000.17,0000.26,0000.31,0000.37,17.1,23.5,01.3,00.9,0621.6,30.9
2021-02-04T15:32:00Z,00000200,01000000,0000.57,-000.15,0000.48,0000.50,0000.35,-000.06,0000.17,0000.58,0000.37,17.2,23.5,01.3,00.9,0621.7,31.0
2021-02-04T15:33:00Z,00000200,01010000,0000.54,-000.09,0000.08,0000.21,0000.13,-000.29,0000.29,-000.11,0000.36,17.2,23.6,01.2,00.8,0622.0,31.0
2021-02-04T15:34:00Z,00000200,01000000,0000.20,0000.10,-000.06,0000.57,-000.14,-000.03,-000.30,0000.07,-000.28,17.2,23.6,01.3,00.9,0621.9,31.0
2021-02-04T15:35:00Z,00000200,01000000,-000.05,0000.15,0000.22,0000.61,-000.20,-000.01,0000.42,0000.39,0000.70,17.2,23.6,01.4,00.9,0621.7,31.0
2021-02-04T15:36:00Z,00000200,01000000,0000.26,0000.07,0000.11,0000.00,-000.11,0000.07,-000.08,0000.07,-000.23,17.2,23.6,01.4,00.9,0622.0,30.9
2021-02-04T15:37:00Z,00000200,01000000,0000.06,-000.05,-000.04,0000.59,0000.05,-000.13,0000.12,-000.08,-000.15,17.2,23.6,01.3,00.9,0622.1,31.0
2021-02-04T15:38:00Z,00000200,01000000,0000.12,0000.05,0000.27,0000.45,0000.00,0000.02,0000.14,0000.25,0000.17,17.2,23.6,01.3,00.8,0622.0,31.0
2021-02-04T15:39:00Z,00000200,01000000,0000.31,-000.02,0000.02,0000.59,-000.06,-000.10,0000.19,0000.11,0000.30,17.2,23.6,01.3,00.9,0622.3,31.0
2021-02-04T15:40:00Z,00000200,01000000,-000.40,0000.05,0000.25,0000.37,0000.01,0000.02,0000.10,0000.08,0000.12,17.2,23.6,01.3,00.9,0622.0,31.0
2021-02-04T15:41:00Z,00000200,01000000,-000.09,-000.10,0000.14,-000.15,0000.15,0000.15,-000.01,0000.22,-000.07,17.2,23.6,01.4,00.9,0622.0,31.0
2021-02-04T15:42:00Z,00000200,01000000,0000.43,0000.27,0000.20,0000.47,-000.26,0000.05,0000.03,0000.02,0000.81,17.2,23.6,01.3,00.9,0622.3,31.0
2021-02-04T15:43:00Z,00000200,01000000,0000.20,0000.22,0000.24,0000.56,0000.14,-000.03,0000.18,-000.11,-000.50,17.2,23.6,01.3,00.9,0622.3,31.0
2021-02-04T15:44:00Z,00000200,01000000,-000.03,-000.07,0000.00,0000.52,0000.09,-000.18,0000.34,0000.20,0000.39,17.1,23.6,01.3,00.8,0622.4,31.0
2021-02-04T15:45:00Z,00000200,01000000,-000.15,0000.11,0000.25,-000.17,0000.03,0000.17,-000.24,0000.26,0000.02,17.1,23.6,01.3,00.9,0622.3,31.0
2021-02-04T15:46:00Z,00000200,01000000,0000.56,-000.16,0000.05,0000.64,0000.13,-000.05,0000.41,-000.12,0000.21,17.1,23.6,01.2,00.8,0622.4,30.9
2021-02-04T15:47:00Z,00000200,01000000,0000.19,-000.24,-000.21,0000.43,-000.06,0000.06,0000.23,-000.15,-000.01,17.2,23.6,01.3,00.9,0622.5,31.0
2021-02-04T15:48:00Z,00000200,01000000,0000.16,-000.15,0000.07,0000.08,-000.12,0000.35,-000.35,0000.56,0000.02,17.3,23.6,01.2,00.8,0622.9,31.0
2021-02-04T15:49:00Z,00000200,01000000,0000.42,-000.08,0000.38,-000.14,0000.04,0000.09,0000.57,-000.03,0000.19,17.3,23.6,01.2,00.8,0622.6,31.0
2021-02-04T15:50:00Z,00000200,01000000,0000.30,0000.10,-000.06,0000.38,0000.05,-000.05,-000.09,0000.09,-000.44,17.3,23.6,01.2,00.8,0623.3,31.0
2021-02-04T15:51:00Z,00000200,01000000,0000.63,-000.01,0000.34,0000.07,-000.06,0000.28,-000.37,-000.19,0000.22,17.3,23.6,01.2,00.8,0623.5,31.0
2021-02-04T15:52:00Z,00000200,01000000,0000.06,-000.29,0000.19,0000.06,0000.06,-000.16,0000.03,0000.20,0000.06,17.3,23.6,01.2,00.8,0623.5,31.0
2021-02-04T15:53:00Z,00000200,01000000,0000.74,-000.16,0000.19,0000.21,0000.05,0000.16,-000.43,-000.42,0000.04,17.3,23.6,01.1,00.8,0623.8,31.0
2021-02-04T15:54:00Z,00000200,01000000,0000.26,-000.24,-000.12,0000.34,0000.19,0000.08,0000.45,0000.36,-000.00,17.3,23.6,01.2,00.8,0623.7,31.0
2021-02-04T15:55:00Z,00000200,01000000,0000.61,-000.06,0000.05,0000.38,-000.06,-000.01,0000.02,0000.11,0000.11,17.3,23.6,01.2,00.8,0624.0,31.0
2021-02-04T15:56:00Z,00000200,01000000,0000.43,0000.05,0000.24,0000.57,-000.16,0000.20,-000.02,-000.16,0000.01,17.2,23.6,01.2,00.8,0624.1,31.0
2021-02-04T15:57:00Z,00000200,41000000,,,,,,,0000.10,0000.21,0000.06,17.3,23.7,01.2,00.8,0624.6,31.0
2021-02-04T15:58:00Z,00000200,61000000,,,,,,,0000.05,-000.25,-000.06,16.9,23.7,01.1,00.7,0623.5,31.0
2021-02-04T15:59:00Z,00000200,21000000,,,,,,,-000.65,-000.12,-000.32,16.9,23.8,00.9,00.6,0623.5,30.9
